Temperature
3 3 3 2 2 2 2 3 4 4 4 3 2 1 -0 -1 -2 -3 -3 -4 -4 -4 -4 -4 -4 -4 -4 -4 -4 -4 -4 -4 -4 -4 -4 -4 -4 -5 -5 -5 -5 -5 -5 -5
2 2 2 1 2 2 1 1 2 2 2 1 0 -1 -2 -2 -3 -4 -4 -4 -4 -4 -4 -4 -4 -4 -4 -4 -4 -4 -4 -4 -5 -5 -5 -5 -5 -5 -5 -5 -5 -6 -6 -6
2 1 1 2 1 1 0 -0 0 1 1 -0 -1 -1 -2 -3 -4 -4 -4 -5 -5 -5 -5 -5 -5 -5 -5 -5 -5 -5 -5 -5 -5 -5 -5 -6 -6 -6 -6 -6 -6 -6 -6 -6
1 1 1 2 -1 -1 -1 -1 -2 -2 -1 -1 -2 -3 -3 -4 -4 -5 -5 -5 -5 -5 -5 -5 -5 -5 -6 -6 -6 -6 -6 -6 -6 -6 -6 -6 -6 -7 -7 -7 -7 -7 -7 -7
1 1 2 1 -2 -2 -2 -1 -2 -3 -3 -3 -4 -4 -3 -4 -5 -5 -5 -5 -5 -5 -6 -5 -6 -6 -6 -6 -6 -6 -6 -7 -7 -7 -7 -7 -7 -7 -7 -7 -7 -7 -8 -8
-0 1 1 0 -3 -4 -2 -1 -3 -4 -4 -4 -5 -2 -2 -5 -6 -6 -6 -6 -6 -6 -6 -6 -6 -7 -7 -7 -7 -7 -7 -7 -7 -7 -7 -7 -8 -8 -8 -8 -8 -8 -8 -8
-1 -0 -0 -3 -5 -4 -1 -2 -5 -6 -6 -6 -5 -5 -6 -7 -7 -7 -6 -6 -6 -6 -6 -6 -7 -7 -7 -8 -8 -8 -8 -8 -8 -8 -8 -8 -8 -8 -8 -9 -9 -9 -8 -8
-2 -1 -1 -6 -5 -4 -4 -6 -7 -7 -7 -8 -8 -8 -8 -8 -7 -7 -7 -7 -7 -7 -7 -7 -8 -8 -8 -8 -8 -8 -8 -8 -8 -8 -8 -8 -9 -9 -9 -9 -9 -9 -9 -9
-4 -3 -5 -7 -7 -7 -8 -8 -8 -8 -9 -9 -9 -9 -9 -9 -8 -8 -8 -8 -8 -8 -8 -8 -8 -8 -8 -8 -9 -9 -9 -8 -8 -9 -9 -9 -9 -9 -9 -9 -9 -9 -9 -9
-6 -5 -7 -7 -8 -8 -8 -8 -9 -9 -9 -9 -10 -10 -10 -9 -9 -9 -9 -9 -9 -8 -8 -8 -9 -9 -9 -9 -9 -9 -9 -9 -9 -9 -9 -9 -9 -9 -10 -9 -10 -10 -10 -10
-6 -6 -7 -8 -8 -8 -9 -9 -9 -9 -9 -10 -10 -10 -10 -10 -10 -10 -10 -9 -9 -9 -9 -9 -9 -9 -9 -9 -10 -10 -10 -10 -10 -10 -10 -10 -10 -10 -10 -10 -10 -10 -10 -10
-6 -8 -8 -8 -9 -9 -10 -10 -10 -10 -10 -10 -10 -10 -10 -10 -10 -10 -10 -10 -10 -9 -9 -9 -9 -9 -10 -10 -10 -10 -10 -10 -10 -10 -10 -10 -10 -10 -10 -10 -10 -10 -10 -10
-9 -9 -9 -9 -10 -10 -10 -10 -10 -10 -10 -11 -10 -10 -11 -11 -11 -10 -10 -10 -10 -10 -10 -10 -10 -10 -10 -10 -10 -10 -11 -11 -11 -11 -11 -11 -11 -11 -11 -10 -10 -10 -10 -10
-10 -10 -10 -10 -10 -11 -11 -11 -11 -11 -11 -11 -11 -11 -11 -11 -11 -11 -11 -10 -10 -11 -10 -10 -10 -10 -10 -11 -11 -11 -11 -11 -11 -11 -11 -11 -11 -11 -11 -11 -11 -11 -11 -11
-11 -11 -11 -11 -11 -11 -11 -11 -11 -11 -11 -11 -11 -11 -11 -11 -11 -11 -11 -11 -11 -11 -11 -11 -11 -11 -11 -11 -11 -11 -11 -11 -11 -11 -11 -11 -11 -11 -11 -11 -11 -11 -11 -11
-11 -11 -11 -12 -12 -12 -12 -12 -12 -12 -12 -12 -12 -12 -12 -12 -12 -12 -11 -11 -11 -11 -11 -11 -11 -11 -11 -11 -11 -12 -11 -11 -12 -12 -12 -12 -11 -12 -12 -12 -12 -12 -12 -12
-12 -12 -12 -12 -12 -12 -12 -12 -12 -12 -12 -12 -12 -12 -12 -12 -12 -12 -12 -12 -12 -12 -12 -12 -12 -12 -12 -12 -12 -12 -12 -12 -12 -12 -12 -12 -12 -12 -12 -12 -12 -12 -12 -12
-13 -13 -13 -13 -13 -13 -13 -13 -12 -13 -13 -13 -13 -13 -13 -13 -13 -13 -12 -12 -12 -12 -12 -12 -12 -12 -12 -12 -12 -12 -12 -12 -12 -12 -12 -12 -12 -12 -12 -12 -12 -12 -12 -12
-13 -13 -13 -13 -13 -13 -13 -13 -13 -13 -13 -13 -13 -13 -13 -13 -13 -13 -13 -13 -13 -13 -12 -12 -13 -13 -13 -12 -12 -12 -12 -13 -13 -13 -12 -12 -12 -12 -12 -12 -12 -12 -12 -12
-13 -13 -13 -13 -13 -13 -13 -13 -13 -13 -13 -13 -13 -13 -13 -13 -13 -13 -13 -13 -13 -13 -13 -13 -13 -13 -13 -13 -13 -13 -13 -13 -13 -13 -13 -13 -13 -13 -13 -13 -13 -13 -13 -13
-13 -13 -13 -13 -13 -13 -13 -13 -13 -13 -14 -14 -14 -14 -14 -14 -14 -14 -14 -14 -13 -14 -13 -13 -14 -14 -13 -13 -13 -13 -13 -13 -13 -13 -13 -13 -13 -13 -13 -13 -13 -13 -13 -13
-14 -14 -14 -14 -14 -14 -14 -14 -14 -14 -14 -14 -14 -14 -14 -14 -14 -14 -14 -14 -14 -14 -14 -14 -14 -14 -14 -14 -14 -14 -14 -14 -14 -14 -14 -14 -14 -14 -14 -14 -14 -13 -13 -13
-14 -14 -14 -14 -14 -14 -14 -14 -14 -14 -14 -15 -15 -14 -14 -15 -15 -15 -14 -14 -15 -15 -15 -14 -14 -14 -14 -14 -14 -14 -14 -14 -14 -14 -14 -14 -14 -14 -14 -14 -14 -14 -14 -14
-14 -14 -14 -14 -14 -15 -15 -15 -15 -15 -15 -15 -15 -15 -15 -15 -15 -15 -15 -15 -15 -15 -15 -15 -15 -15 -15 -15 -15 -15 -15 -15 -15 -15 -15 -14 -14 -14 -14 -14 -14 -14 -14 -14
-14 -14 -15 -15 -15 -15 -15 -15 -15 -15 -15 -15 -15 -15 -15 -15 -15 -15 -15 -15 -15 -15 -15 -15 -15 -15 -15 -15 -15 -15 -15 -15 -15 -15 -15 -15 -15 -15 -15 -15 -15 -15 -15 -14
-15 -15 -15 -15 -15 -15 -16 -16 -16 -16 -16 -15 -15 -15 -15 -15 -15 -15 -15 -15 -15 -15 -15 -15 -15 -15 -15 -15 -15 -15 -15 -15 -15 -15 -15 -15 -15 -15 -15 -15 -15 -15 -15 -15
-15 -15 -15 -15 -15 -16 -16 -16 -16 -16 -16 -16 -16 -15 -15 -16 -16 -16 -16 -16 -16 -16 -16 -16 -16 -16 -16 -16 -16 -16 -15 -15 -15 -15 -15 -15 -15 -15 -15 -15 -15 -15 -15 -15
Wind_Speed
12 11 8 9 9 8 10 11 11 12 11 11 8 6 5 4 2 2 2 2 2 2 2 2 2 2 1 1 2 2 3 3 3 3 3 3 3 3 4 4 5 5 5 6
9 8 7 9 10 10 12 11 12 13 12 8 6 4 4 4 3 3 3 3 2 2 2 2 2 1 1 1 1 2 3 3 3 3 3 3 3 3 4 4 5 5 6 6
8 6 6 8 7 8 6 6 6 10 10 6 6 5 5 4 3 4 4 4 3 3 2 2 2 2 2 2 1 2 2 2 2 2 3 3 3 4 4 5 5 5 6 6
5 5 8 2 1 2 5 5 5 5 7 7 8 7 5 4 4 4 4 4 3 3 2 2 2 2 2 1 1 2 2 2 3 3 3 3 3 4 4 4 5 5 6 6
4 6 7 3 1 2 5 6 3 6 9 8 7 5 3 2 3 4 4 4 3 3 3 2 2 2 2 2 2 2 3 3 3 3 3 3 4 4 4 5 5 5 6 6
4 5 6 3 4 5 3 5 3 5 7 6 5 5 4 5 6 5 4 3 3 2 2 2 2 2 2 2 3 3 3 3 3 3 4 4 4 4 4 4 5 5 5 6
7 7 5 4 5 2 3 4 6 6 6 6 5 6 7 8 7 5 4 4 3 2 2 2 2 2 2 3 4 3 3 3 3 3 4 4 4 4 4 4 4 5 5 5
4 5 4 4 2 1 4 6 6 7 7 6 7 8 8 7 6 5 4 4 3 2 2 2 2 2 3 4 4 3 2 3 3 3 3 3 3 4 4 4 4 4 4 5
3 3 3 1 2 4 5 6 7 7 7 7 7 8 7 6 6 6 5 4 3 2 2 2 2 3 4 4 3 2 2 3 3 3 3 3 4 4 4 4 4 4 4 4
4 5 5 3 4 6 6 6 7 7 7 6 7 7 7 7 6 6 5 4 3 3 3 3 3 3 4 3 3 3 3 3 3 3 3 3 3 3 4 4 4 4 4 4
5 6 6 4 6 7 7 6 6 7 6 6 6 6 6 7 6 6 5 5 4 4 4 4 4 4 3 3 3 3 3 3 3 3 3 3 3 4 5 5 6 5 4 4
6 5 6 7 7 8 7 7 8 8 7 7 6 6 7 6 6 6 6 5 5 4 4 5 4 4 4 3 3 3 3 3 3 3 3 3 3 3 5 6 8 8 8 7
6 7 7 7 7 7 7 7 7 7 7 7 7 6 6 7 7 6 6 6 5 5 5 5 4 4 4 3 3 4 4 4 3 3 3 3 3 3 4 4 5 6 7 7
6 5 5 6 7 7 7 7 7 7 6 6 7 7 6 6 6 6 6 6 6 5 5 5 4 5 4 4 4 4 4 4 4 4 4 4 4 4 3 3 4 4 5 6
7 5 5 6 6 7 6 6 7 7 8 8 7 7 7 7 7 7 7 6 5 5 5 5 5 5 4 4 4 4 4 3 4 4 4 4 4 4 4 4 4 4 4 4
7 6 5 5 7 7 7 7 7 8 8 8 8 8 8 7 7 7 6 5 5 5 5 5 5 5 4 4 4 4 4 5 4 4 3 3 3 3 4 4 4 4 4 4
6 6 7 7 8 8 7 7 7 8 8 8 8 8 8 7 7 7 6 6 5 5 5 5 5 5 4 4 4 3 3 4 5 4 4 4 4 4 4 4 4 4 4 5
6 6 7 7 7 8 8 8 7 8 8 8 8 7 7 7 7 7 7 6 5 5 5 5 5 5 4 4 3 3 3 3 4 4 4 4 4 4 4 4 4 5 4 5
7 7 7 7 7 7 7 7 8 7 7 7 7 7 7 7 7 7 6 6 5 6 6 5 6 5 4 4 4 3 3 4 4 4 4 5 4 4 4 4 4 5 4 4
8 8 8 7 7 6 6 7 7 7 7 6 7 7 7 7 7 7 6 5 5 5 6 6 5 4 4 4 4 3 3 4 4 3 3 4 4 4 4 4 5 5 4 4
9 9 8 8 7 7 6 6 6 7 7 7 6 7 8 8 7 6 5 5 6 6 6 6 4 4 4 3 3 2 3 3 3 3 3 4 4 4 4 4 5 5 5 5
8 8 8 8 7 7 7 6 6 7 7 7 7 7 7 7 7 6 5 5 6 8 6 4 4 5 5 4 2 2 3 3 3 3 3 4 4 4 4 5 5 5 5 5
8 8 8 7 7 8 8 7 6 6 7 7 7 7 7 7 6 5 6 5 6 8 6 4 5 7 6 3 2 3 3 3 3 3 4 4 4 4 5 5 5 5 5 5
8 8 7 7 7 6 7 8 7 6 7 7 6 6 6 6 5 5 5 8 9 9 5 6 7 7 6 3 3 3 3 3 4 4 4 4 4 4 4 5 5 5 5 6
7 7 7 7 6 6 7 8 8 7 7 6 6 6 5 4 5 6 6 6 8 8 5 6 8 8 5 3 3 3 3 4 4 4 4 4 4 4 5 5 5 5 5 6
7 6 6 6 6 6 6 6 6 6 6 6 6 6 5 5 5 5 5 6 7 7 5 4 5 5 4 4 4 4 4 4 5 4 4 4 5 5 5 5 6 6 6 6
6 6 5 5 5 6 6 6 6 6 6 6 6 6 6 6 5 6 6 5 5 5 5 5 5 4 4 4 4 4 4 4 4 4 4 4 5 5 5 6 6 6 6 7
Wind_Direction
265 275 266 259 254 234 229 240 250 263 265 280 289 291 292 299 306 300 276 256 232 223 219 206 193 189 187 192 189 185 191 201 210 220 226 228 233 239 244 245 248 251 252 254
268 262 263 267 262 243 241 248 253 265 273 295 297 294 293 293 294 285 281 273 258 249 236 217 210 206 204 209 208 196 200 213 218 223 223 230 238 243 246 248 251 252 252 253
268 282 273 263 256 231 230 240 246 255 271 298 300 294 292 286 282 281 282 283 274 254 238 234 228 222 226 232 231 213 213 217 217 224 228 235 245 248 250 254 256 255 257 256
270 270 248 264 60 206 219 245 245 264 294 304 299 302 303 290 287 288 291 289 280 265 254 249 237 231 234 230 222 218 220 227 227 231 239 243 245 248 254 257 255 258 259 260
244 258 266 266 353 269 240 258 282 274 289 305 328 316 303 350 325 300 296 294 283 272 255 239 230 223 216 225 226 223 229 239 242 237 241 246 247 251 258 260 259 258 260 261
241 256 260 322 346 328 244 254 359 313 303 315 318 293 310 353 333 320 315 311 304 295 266 245 240 222 219 232 235 239 246 253 254 247 241 245 250 255 259 258 260 263 265 265
246 252 264 348 333 313 237 315 350 337 324 313 295 290 309 317 317 312 311 312 309 291 266 255 243 227 234 244 252 262 261 258 256 256 250 247 248 250 251 257 262 263 264 267
238 241 266 8 26 292 318 339 335 328 324 315 306 303 305 311 316 317 317 317 310 295 285 275 247 231 242 253 268 274 264 261 263 263 262 249 243 249 249 249 255 261 265 272
244 265 342 12 339 330 329 318 322 321 321 317 309 308 312 314 315 315 314 310 301 288 288 285 259 241 249 265 274 267 259 263 269 270 263 252 244 244 247 245 248 255 261 271
274 287 309 303 324 327 325 317 312 310 310 310 304 305 309 311 313 314 313 308 298 285 280 283 280 270 263 269 262 251 253 262 265 266 265 260 252 244 244 244 248 252 258 267
272 296 310 310 328 326 326 324 320 319 314 310 306 305 307 309 310 310 308 305 292 279 276 281 286 280 277 266 248 245 253 263 266 263 262 262 260 254 252 251 251 257 259 261
282 299 293 301 323 327 323 323 321 320 321 321 312 301 304 303 303 302 302 303 293 283 281 285 287 284 280 266 247 241 249 256 260 262 263 265 267 275 270 268 269 270 269 271
285 300 295 297 316 325 320 318 320 320 315 314 315 307 303 301 303 302 300 298 291 286 284 283 283 281 278 268 253 245 246 253 254 254 256 260 263 266 280 284 279 275 275 278
320 319 303 310 315 322 321 321 325 325 324 320 318 316 312 307 306 304 302 298 293 287 285 280 276 275 276 266 257 254 254 254 255 253 254 257 260 260 263 270 281 285 282 279
330 321 305 313 321 326 328 329 332 331 331 331 327 322 317 312 308 306 306 304 297 287 281 277 272 275 276 264 256 254 255 254 255 257 258 261 261 257 258 261 267 277 287 285
328 332 327 323 323 326 330 332 328 325 327 325 324 323 319 313 308 307 309 306 294 287 283 277 274 277 275 267 262 257 254 257 260 259 259 260 257 254 255 259 263 266 270 278
332 330 328 324 320 320 322 320 316 315 317 319 320 320 319 318 317 317 318 314 301 291 286 282 283 285 275 267 262 261 256 252 259 263 257 255 255 256 256 257 261 267 270 272
315 310 307 305 305 307 313 317 317 316 315 315 318 319 319 319 318 318 320 321 316 311 306 298 292 291 282 275 265 262 256 254 255 256 254 252 255 255 255 256 259 265 272 277
329 323 320 315 310 306 306 311 315 316 317 318 320 319 318 317 315 315 318 319 317 316 319 315 307 302 294 285 280 258 255 258 258 254 253 254 258 254 253 254 259 264 267 271
334 331 327 324 321 315 311 315 319 320 322 323 323 323 324 323 322 319 317 312 310 307 309 311 309 304 297 286 286 267 262 259 257 257 256 252 252 255 256 258 260 264 267 268
332 332 333 333 331 328 325 323 322 322 324 326 325 323 322 321 322 320 318 317 322 323 319 315 316 309 299 295 286 277 267 261 258 257 256 256 257 260 261 262 264 265 267 269
329 329 329 330 331 329 329 327 325 323 325 328 327 326 326 327 329 325 317 310 315 323 325 317 315 311 314 312 294 283 273 268 265 262 260 260 261 263 265 268 268 269 269 269
325 326 327 328 326 324 325 329 329 327 326 325 324 326 326 323 324 324 326 329 326 327 329 320 320 321 325 325 306 290 277 272 270 267 265 265 264 264 266 269 269 270 271 272
327 327 326 325 326 328 331 332 331 328 322 318 319 321 322 322 324 324 316 320 331 331 328 324 329 331 335 329 312 302 290 282 277 273 272 270 268 268 268 269 272 274 275 276
327 326 327 331 332 330 327 327 329 332 332 329 329 330 327 320 316 319 322 325 329 331 330 331 335 337 338 324 317 308 298 289 284 281 274 273 272 272 273 273 274 276 277 276
327 324 323 322 321 321 324 326 328 328 329 328 329 331 329 328 325 324 324 327 328 331 332 327 328 332 330 324 317 310 303 298 297 293 285 281 278 277 276 277 278 276 275 275
325 325 324 327 329 329 326 324 323 324 325 323 321 324 328 329 329 330 329 329 329 331 331 330 329 328 326 323 319 313 307 304 301 299 295 289 284 281 280 280 279 279 277 276
Height
1469 1467 1468 1467 1466 1468 1467 1460 1455 1448 1450 1451 1454 1456 1456 1456 1456 1456 1456 1455 1455 1454 1455 1455 1456 1456 1457 1458 1459 1460 1461 1461 1462 1463 1464 1464 1465 1466 1466 1466 1466 1466 1466 1466
1468 1466 1466 1465 1462 1463 1464 1462 1459 1455 1453 1454 1455 1455 1455 1455 1455 1454 1454 1453 1453 1453 1453 1453 1453 1454 1454 1455 1456 1456 1457 1458 1459 1459 1460 1460 1461 1461 1462 1462 1462 1462 1461 1461
1462 1464 1464 1457 1458 1460 1461 1461 1459 1455 1454 1455 1454 1454 1454 1454 1453 1453 1452 1452 1451 1450 1450 1450 1451 1451 1451 1452 1453 1453 1454 1455 1455 1456 1456 1456 1457 1457 1457 1457 1457 1457 1456 1456
1465 1465 1458 1455 1460 1460 1460 1460 1460 1459 1457 1455 1455 1453 1453 1452 1452 1451 1450 1449 1449 1448 1448 1448 1448 1449 1449 1450 1450 1450 1451 1451 1452 1452 1452 1453 1453 1453 1453 1453 1453 1452 1452 1451
1464 1457 1450 1455 1461 1462 1460 1457 1459 1458 1456 1455 1454 1452 1451 1451 1450 1449 1448 1447 1447 1446 1446 1446 1446 1446 1446 1447 1447 1447 1448 1448 1448 1448 1448 1449 1449 1449 1449 1448 1448 1447 1447 1446
1463 1457 1448 1455 1462 1461 1461 1454 1458 1458 1456 1455 1454 1450 1449 1450 1448 1447 1446 1445 1445 1444 1443 1443 1443 1443 1443 1443 1444 1444 1444 1444 1445 1445 1445 1445 1445 1445 1445 1444 1444 1443 1443 1442
1463 1458 1454 1465 1464 1461 1458 1456 1461 1459 1457 1456 1454 1452 1451 1448 1446 1445 1444 1443 1442 1441 1441 1441 1441 1440 1440 1440 1440 1441 1441 1441 1441 1441 1442 1441 1441 1441 1441 1440 1440 1439 1439 1438
1464 1459 1460 1468 1466 1465 1463 1463 1461 1459 1457 1455 1453 1450 1447 1445 1444 1442 1441 1440 1440 1439 1438 1438 1438 1438 1437 1437 1437 1438 1438 1438 1438 1438 1438 1438 1438 1437 1437 1437 1436 1435 1435 1434
1471 1468 1470 1469 1468 1467 1465 1463 1460 1458 1455 1453 1450 1447 1445 1443 1441 1440 1439 1438 1437 1436 1435 1435 1435 1435 1434 1434 1434 1434 1434 1434 1434 1435 1435 1434 1434 1434 1433 1433 1433 1432 1431 1431
1472 1468 1469 1468 1467 1465 1463 1461 1458 1456 1453 1450 1448 1445 1443 1441 1439 1438 1436 1435 1434 1434 1432 1432 1432 1432 1431 1431 1431 1430 1430 1430 1431 1431 1431 1431 1431 1430 1430 1429 1429 1428 1428 1427
1471 1469 1468 1466 1465 1464 1461 1459 1456 1453 1451 1448 1446 1443 1441 1439 1437 1435 1434 1433 1432 1430 1429 1429 1428 1428 1428 1428 1427 1427 1427 1427 1427 1427 1427 1427 1427 1427 1426 1426 1426 1425 1424 1424
1470 1471 1470 1467 1465 1463 1460 1457 1454 1451 1448 1446 1444 1441 1439 1437 1435 1433 1431 1430 1428 1427 1426 1425 1425 1424 1424 1424 1424 1424 1423 1423 1424 1424 1424 1423 1423 1423 1423 1423 1422 1421 1421 1420
1472 1469 1468 1465 1463 1461 1458 1455 1452 1450 1447 1444 1442 1440 1437 1434 1432 1430 1428 1427 1425 1424 1423 1422 1422 1421 1421 1421 1421 1420 1420 1420 1420 1420 1420 1420 1419 1419 1418 1418 1418 1417 1417 1416
1470 1468 1465 1463 1461 1458 1456 1453 1450 1447 1445 1442 1439 1437 1434 1432 1429 1427 1425 1424 1422 1421 1420 1419 1419 1418 1418 1418 1417 1417 1417 1417 1417 1417 1416 1416 1416 1415 1415 1414 1413 1412 1412 1412
1468 1466 1464 1461 1459 1456 1453 1451 1448 1445 1442 1440 1437 1434 1432 1429 1426 1424 1422 1420 1419 1418 1417 1416 1415 1415 1415 1414 1414 1413 1413 1413 1413 1413 1413 1413 1412 1412 1411 1410 1410 1409 1408 1408
1467 1464 1462 1459 1457 1454 1451 1449 1446 1443 1440 1437 1435 1432 1430 1427 1424 1422 1420 1418 1416 1414 1413 1412 1411 1411 1411 1411 1410 1410 1410 1410 1410 1410 1409 1409 1408 1408 1407 1407 1406 1405 1404 1403
1465 1462 1460 1457 1455 1453 1450 1447 1445 1442 1439 1436 1433 1430 1427 1424 1422 1419 1417 1416 1414 1412 1411 1410 1409 1408 1408 1407 1407 1406 1406 1406 1406 1406 1406 1405 1405 1404 1404 1403 1402 1401 1401 1400
1465 1462 1460 1457 1454 1451 1448 1445 1443 1440 1437 1434 1431 1428 1425 1422 1420 1417 1415 1413 1411 1410 1409 1407 1406 1405 1405 1404 1403 1403 1403 1403 1403 1402 1402 1402 1401 1401 1400 1399 1399 1398 1397 1396
1463 1460 1457 1455 1452 1449 1446 1443 1440 1438 1435 1432 1429 1426 1423 1421 1418 1416 1413 1411 1409 1407 1406 1405 1404 1402 1402 1401 1400 1400 1400 1399 1399 1399 1398 1398 1398 1397 1396 1396 1395 1394 1393 1392
1460 1458 1455 1452 1450 1447 1444 1441 1438 1435 1433 1430 1427 1424 1422 1419 1417 1414 1412 1410 1408 1406 1404 1402 1401 1400 1399 1398 1397 1397 1396 1396 1396 1395 1395 1394 1394 1393 1393 1392 1391 1390 1389 1388
1459 1456 1453 1450 1447 1445 1442 1440 1437 1434 1431 1429 1426 1423 1420 1418 1415 1413 1410 1408 1406 1404 1402 1400 1399 1398 1396 1395 1395 1394 1393 1393 1392 1392 1391 1391 1390 1389 1389 1388 1387 1386 1385 1384
1457 1454 1452 1449 1446 1443 1441 1438 1435 1433 1430 1427 1425 1422 1419 1416 1414 1411 1409 1407 1404 1403 1400 1398 1397 1396 1394 1393 1392 1391 1390 1390 1389 1388 1388 1387 1386 1386 1385 1384 1383 1382 1381 1380
1456 1453 1450 1447 1445 1442 1439 1437 1434 1431 1429 1426 1423 1420 1418 1415 1413 1410 1407 1405 1403 1401 1399 1397 1395 1394 1392 1391 1390 1389 1388 1387 1386 1385 1384 1384 1383 1382 1381 1380 1380 1378 1377 1376
1455 1452 1449 1447 1444 1441 1438 1435 1433 1430 1428 1425 1422 1420 1417 1414 1412 1409 1407 1404 1401 1399 1397 1395 1393 1392 1390 1389 1387 1386 1385 1384 1383 1382 1381 1380 1380 1379 1378 1377 1376 1375 1374 1372
1454 1451 1448 1445 1442 1440 1437 1434 1431 1429 1426 1424 1421 1419 1416 1413 1411 1408 1406 1403 1400 1398 1395 1393 1392 1390 1388 1386 1385 1384 1382 1381 1380 1379 1378 1377 1376 1375 1374 1373 1372 1371 1370 1369
1452 1450 1447 1444 1442 1439 1436 1433 1430 1428 1425 1422 1420 1417 1415 1412 1410 1407 1404 1402 1399 1397 1394 1392 1390 1388 1386 1385 1383 1381 1380 1379 1378 1377 1376 1374 1373 1372 1371 1370 1369 1368 1367 1365
1451 1448 1445 1443 1440 1438 1435 1432 1429 1427 1424 1421 1418 1416 1414 1411 1408 1406 1403 1400 1398 1395 1393 1391 1389 1387 1385 1383 1381 1380 1378 1377 1376 1374 1373 1372 1370 1369 1368 1367 1366 1364 1363 1362